Weather History for Defiance, OH

Change the Weather History Date:

Sunday, December 22, 2013

  Actual Average Record
Temperature  
Mean Temperature 37 °F -  
Max Temperature 41 °F 34 °F 62 °F (1967)
Min Temperature 33 °F 18 °F -19 °F (1989)
Degree Days  
Heating Degree Days 28    
Moisture  
Dew Point 33 °F    
Average Humidity 88    
Maximum Humidity 96    
Minimum Humidity 79    
Precipitation  
Precipitation 0.16 in - - ()
Sea Level Pressure  
Sea Level Pressure 29.74 in    
Wind  
Wind Speed 7 mph (WSW)    
Max Wind Speed 20 mph    
Max Gust Speed 26 mph    
Visibility 6 miles    
Events Rain    
Averages and records for this station are not official NWS values.
T = Trace of Precipitation, MM = Missing Value Source: NWS Daily Summary

Daily Weather History Graph

Daily Weather History Graph

Search for Another Location

Airport:

Trip Planner

Search our weather history database for the weather conditions in past years. The results will help you decide how hot, cold, wet, or windy it might be!

Date:

Astronomy

Dec. 22, 2013 Rise Set
Actual Time 8:00 AM EST 5:12 PM EST
Civil Twilight 7:29 AM EST 5:43 PM EST
Nautical Twilight 6:54 AM EST 6:18 PM EST
Astronomical Twilight 6:20 AM EST 6:52 PM EST
Moon 10:27 PM EST (12/22) 10:53 AM EST (12/22)
Length of Visible Light 10h 14m
Length of Day
9h 11m
Waning Gibbous, 77% of the Moon is Illuminated
Dec 22
Waning Gibbous
Dec 25
Last Quarter
Jan 1
New
Jan 7
First Quarter
Jan 15
Full

Hourly Weather History & Observations

Time (EST) Temp. Windchill Dew Point Humidity Pressure Visibility Wind Dir Wind Speed Gust Speed Precip Events Conditions
12:53 AM 35.1 °F 29.3 °F 32.0 °F 89% 29.62 in 5.0 mi NE 6.9 mph - 0.05 in Rain Light Rain
1:53 AM 35.1 °F 25.9 °F 32.0 °F 89% 29.49 in 10.0 mi NE 13.8 mph 20.7 mph 0.01 in   Overcast
2:53 AM 36.0 °F 29.0 °F 33.1 °F 89% 29.60 in 9.0 mi East 9.2 mph 16.1 mph 0.00 in   Overcast
3:44 AM 35.6 °F 28.6 °F 33.8 °F 93% 29.55 in 2.0 mi ENE 9.2 mph - 0.02 in Rain Light Rain
3:53 AM 35.1 °F 27.4 °F 33.1 °F 92% 29.55 in 2.0 mi NE 10.4 mph - 0.03 in Rain Light Rain
4:00 AM 35.6 °F 29.9 °F 33.8 °F 93% 29.53 in 3.0 mi NE 6.9 mph - 0.00 in   Overcast
4:09 AM 35.6 °F 29.9 °F 33.8 °F 93% 29.53 in 2.5 mi ENE 6.9 mph - 0.01 in Rain Light Rain
4:36 AM 35.6 °F 31.7 °F 33.8 °F 93% 29.53 in 2.0 mi Variable 4.6 mph - 0.04 in Rain Light Rain
4:43 AM 35.6 °F 28.6 °F 33.8 °F 93% 29.54 in 3.0 mi NNE 9.2 mph - 0.04 in Rain Light Rain
4:53 AM 35.1 °F 28.6 °F 33.1 °F 92% 29.54 in 2.5 mi ENE 8.1 mph - 0.05 in Rain Light Rain
5:07 AM 35.6 °F 32.8 °F 33.8 °F 93% 29.53 in 3.0 mi NNE 3.5 mph - 0.01 in Rain Light Rain
5:21 AM 35.6 °F 29.9 °F 33.8 °F 93% 29.52 in 2.0 mi ENE 6.9 mph - 0.01 in   Overcast
5:30 AM 35.6 °F 31.7 °F 33.8 °F 93% 29.54 in 3.0 mi NNE 4.6 mph - 0.01 in   Overcast
5:53 AM 35.1 °F 31.0 °F 33.1 °F 92% 29.56 in 4.0 mi ENE 4.6 mph - 0.01 in   Overcast
6:02 AM 35.6 °F - 33.8 °F 93% 29.54 in 2.5 mi Calm Calm - N/A   Overcast
6:06 AM 35.6 °F - 33.8 °F 93% 29.54 in 1.8 mi Calm Calm - N/A   Overcast
6:19 AM 35.6 °F - 33.8 °F 93% 29.55 in 2.5 mi Calm Calm - 0.01 in   Overcast
6:32 AM 35.6 °F - 33.8 °F 93% 29.55 in 3.0 mi Calm Calm - 0.01 in   Overcast
6:50 AM 35.6 °F - 33.8 °F 93% 29.57 in 2.5 mi Calm Calm - 0.01 in   Overcast
6:53 AM 35.1 °F - 34.0 °F 96% 29.58 in 2.5 mi Calm Calm - 0.01 in   Overcast
7:10 AM 35.6 °F - 33.8 °F 93% 29.58 in 2.0 mi Calm Calm - N/A   Overcast
7:24 AM 35.6 °F - 33.8 °F 93% 29.59 in 1.8 mi Calm Calm - N/A   Overcast
7:35 AM 35.6 °F - 33.8 °F 93% 29.59 in 2.0 mi Calm Calm - N/A   Overcast
7:44 AM 35.6 °F 32.8 °F 33.8 °F 93% 29.59 in 1.5 mi WSW 3.5 mph - N/A   Overcast
7:53 AM 36.0 °F 32.1 °F 34.0 °F 93% 29.62 in 1.8 mi SW 4.6 mph - N/A   Overcast
8:00 AM 37.4 °F 33.8 °F 35.6 °F 93% 29.61 in 2.5 mi SW 4.6 mph - N/A   Overcast
8:12 AM 37.4 °F 33.8 °F 35.6 °F 93% 29.63 in 3.0 mi WSW 4.6 mph - N/A   Overcast
8:44 AM 39.2 °F 32.0 °F 37.4 °F 93% 29.64 in 9.0 mi SW 11.5 mph 17.3 mph N/A   Overcast
8:53 AM 39.9 °F 32.1 °F 37.0 °F 89% 29.66 in 10.0 mi SW 13.8 mph 21.9 mph N/A   Overcast
9:53 AM 39.9 °F 30.5 °F 36.0 °F 86% 29.71 in 10.0 mi SW 19.6 mph 26.5 mph N/A   Overcast
10:53 AM 39.9 °F 31.4 °F 37.0 °F 89% 29.74 in 10.0 mi SW 16.1 mph 26.5 mph N/A   Overcast
11:25 AM 41.0 °F 32.8 °F 37.4 °F 87% 29.73 in 10.0 mi SW 16.1 mph 26.5 mph N/A   Overcast
11:53 AM 41.0 °F 33.9 °F 36.0 °F 82% 29.76 in 10.0 mi SW 12.7 mph 26.5 mph N/A   Overcast
12:53 PM 39.9 °F 33.9 °F 35.1 °F 83% 29.79 in 10.0 mi WSW 9.2 mph 26.5 mph N/A   Overcast
1:53 PM 39.9 °F 32.9 °F 34.0 °F 79% 29.81 in 10.0 mi WSW 11.5 mph 21.9 mph N/A   Overcast
2:07 PM 39.2 °F 31.6 °F 33.8 °F 81% 29.79 in 10.0 mi WSW 12.7 mph 21.9 mph N/A   Overcast
2:26 PM 39.2 °F 33.6 °F 33.8 °F 81% 29.80 in 10.0 mi WSW 8.1 mph 23.0 mph N/A   Overcast
2:53 PM 39.9 °F 31.4 °F 34.0 °F 79% 29.82 in 10.0 mi SW 16.1 mph 23.0 mph N/A   Overcast
3:53 PM 39.0 °F 31.4 °F 34.0 °F 82% 29.86 in 10.0 mi WSW 12.7 mph 21.9 mph N/A   Overcast
4:53 PM 37.0 °F 29.8 °F 33.1 °F 86% 29.90 in 10.0 mi WSW 10.4 mph 18.4 mph 0.00 in   Overcast
5:09 PM 37.4 °F 32.1 °F 33.8 °F 87% 29.89 in 6.0 mi WSW 6.9 mph - 0.00 in Rain Light Rain
5:35 PM 37.4 °F 32.8 °F 33.8 °F 87% 29.89 in 10.0 mi WSW 5.8 mph - 0.00 in   Overcast
5:53 PM 37.0 °F 30.4 °F 33.1 °F 86% 29.93 in 10.0 mi SW 9.2 mph - 0.00 in   Overcast
6:31 PM 37.4 °F 31.4 °F 32.0 °F 81% 29.92 in 10.0 mi SW 8.1 mph - N/A   Overcast
6:53 PM 37.0 °F 31.6 °F 32.0 °F 82% 29.94 in 10.0 mi WSW 6.9 mph - N/A   Overcast
7:53 PM 37.0 °F 31.0 °F 30.9 °F 79% 29.96 in 10.0 mi SW 8.1 mph - N/A   Overcast
8:07 PM 35.6 °F 29.2 °F 30.2 °F 81% 29.95 in 10.0 mi SW 8.1 mph - N/A   Overcast
8:53 PM 36.0 °F 30.3 °F 30.9 °F 82% 29.97 in 10.0 mi WSW 6.9 mph - N/A   Overcast
9:44 PM 35.6 °F 29.9 °F 30.2 °F 81% 29.97 in 10.0 mi WSW 6.9 mph - N/A   Overcast
9:53 PM 36.0 °F 30.3 °F 32.0 °F 86% 29.98 in 10.0 mi Variable 6.9 mph - N/A   Overcast
10:11 PM 35.6 °F 31.7 °F 32.0 °F 87% 29.97 in 10.0 mi Variable 4.6 mph - N/A   Overcast
10:30 PM 35.6 °F 32.8 °F 30.2 °F 81% 29.97 in 8.0 mi Variable 3.5 mph - N/A   Overcast
10:42 PM 35.6 °F 29.9 °F 30.2 °F 81% 29.97 in 5.0 mi West 6.9 mph - 0.00 in   Overcast
10:49 PM 35.6 °F 32.8 °F 32.0 °F 87% 29.97 in 6.0 mi Variable 3.5 mph - 0.00 in   Overcast
10:53 PM 35.1 °F 32.2 °F 32.0 °F 89% 29.99 in 6.0 mi Variable 3.5 mph - 0.00 in   Overcast
11:12 PM 33.8 °F 30.8 °F 30.2 °F 87% 29.98 in 10.0 mi Variable 3.5 mph - N/A   Overcast
11:19 PM 33.8 °F 29.6 °F 30.2 °F 87% 29.98 in 10.0 mi WSW 4.6 mph - N/A   Overcast
11:45 PM 33.8 °F 30.8 °F 30.2 °F 87% 30.00 in 10.0 mi SW 3.5 mph - N/A   Overcast
11:53 PM 34.0 °F 28.8 °F 30.9 °F 89% 30.02 in 10.0 mi WSW 5.8 mph - N/A   Overcast